Flag for U.S.A. Weather past 2 weeks in Milwaukee, Wisconsin, U.S.A.

Now
27 °F

Sunny.


Feels Like: 27 °F
Forecast: 22 / 35 °F
Wind: No wind

Location: Milwaukee / Timmerman

Current Time: Mar 2, 2015 at 6:38:35 PM

Latest Report: Mar 2, 2015 at 4:45 PM


Visibility: 10 mi

Pressure: 30.39 "Hg

Humidity: 54%

Dew point: 12 °F

Location of MilwaukeeLocation

Historic Weather in Milwaukee — Graph

°F

Milwaukee temperature yesterday

Maximum temperature yesterday: 28 °F (at 2:45 PM)
Minimum temperature yesterday: 10 °F (at 3:55 AM)
Average temperature yesterday: 18 °F

Past Weeks' High & Low Weather Summary

 TemperatureHumidityPressure
High30 °F (Feb 18, 7:45 PM)92% (Mar 1, 3:55 AM)30.70 "Hg (Mar 1, 3:55 AM)
Low-9 °F (Feb 19, 4:55 AM)10% (Feb 18, 7:45 PM)29.58 "Hg (Feb 24, 3:45 PM)
Average11 °F60%30.23 "Hg
* Reported Feb 15 4:45 PM — Mar 2 4:45 PM, Milwaukee, Weather by CustomWeather, © 2015

Note: Actual official high and low records may vary slightly from our data, if they occured in-between our weather recording intervals... More about our weather records

Advertising

Milwaukee weather history for previous 24 hours

 ConditionsComfort  
Time TempWeatherWind HumidityBarometerVisibility
4:45 PM
Mon, Mar 2
27 °FSunny.No wind54%30.39 "Hg10 mi
3:45 PM28 °FSunny.No wind34%30.40 "Hg10 mi
2:45 PM28 °FSunny.No wind34%30.43 "Hg10 mi
1:45 PM28 °FSunny.No wind34%30.45 "Hg10 mi
12:45 PM27 °FSunny.8 mph43%30.48 "Hg10 mi
11:45 AM27 °FSunny.No wind43%30.49 "Hg10 mi
10:45 AM25 °FSunny.7 mph50%30.50 "Hg10 mi
9:45 AM21 °FSunny.7 mph58%30.49 "Hg10 mi
8:45 AM19 °FSunny.10 mph63%30.50 "Hg10 mi
7:45 AM16 °FSunny.5 mph73%30.47 "Hg10 mi
6:45 AM12 °FSunny.6 mph79%30.45 "Hg10 mi
5:35 AM12 °FClear.No wind79%30.42 "Hg10 mi
5:15 AM14 °FClear.5 mph73%30.43 "Hg10 mi
4:55 AM14 °FClear.5 mph73%30.42 "Hg10 mi
4:35 AM14 °FClear.6 mph73%30.41 "Hg10 mi
4:15 AM14 °FClear.6 mph73%30.40 "Hg10 mi
3:55 AM14 °FClear.5 mph73%30.39 "Hg10 mi
3:35 AM14 °FClear.6 mph73%30.39 "Hg10 mi
3:15 AM16 °FClear.6 mph67%30.38 "Hg10 mi
2:55 AM16 °FClear.5 mph67%30.37 "Hg10 mi
2:35 AM18 °FClear.8 mph62%30.37 "Hg10 mi
2:15 AM18 °FClear.9 mph62%30.37 "Hg10 mi
1:55 AM18 °FClear.9 mph62%30.36 "Hg10 mi
1:35 AM18 °FClear.9 mph62%30.36 "Hg10 mi
1:15 AM18 °FClear.10 mph62%30.35 "Hg10 mi
12:55 AM18 °FClear.10 mph62%30.34 "Hg10 mi
12:35 AM19 °FClear.10 mph58%30.33 "Hg10 mi
12:15 AM19 °FClear.12 mph58%30.32 "Hg10 mi
11:55 PM
Sun, Mar 1
19 °FClear.13 mph58%30.31 "Hg10 mi
11:35 PM19 °FClear.12 mph58%30.31 "Hg10 mi
11:15 PM19 °FClear.9 mph58%30.30 "Hg10 mi
10:55 PM21 °FClear.10 mph54%30.29 "Hg10 mi
10:35 PM21 °FClear.12 mph54%30.29 "Hg10 mi
10:15 PM21 °FClear.13 mph58%30.29 "Hg10 mi
9:55 PM21 °FClear.18 mph58%30.28 "Hg10 mi
9:15 PM23 °FClear.15 mph63%30.26 "Hg10 mi
8:55 PM23 °FClear.13 mph68%30.26 "Hg10 mi
8:35 PM23 °FClear.10 mph68%30.24 "Hg10 mi
8:15 PM23 °FClear.14 mph68%30.23 "Hg10 mi
7:45 PM23 °FClear.10 mph68%30.22 "Hg10 mi
6:45 PM23 °FClear.9 mph68%30.22 "Hg10 mi
Weather by CustomWeather, © 2015

See weather overviewHow to use our weather pages